Regional Weather Roundup
Issued by NWS

Home | Current Version | Previous Version | Graphics & Text | Print | Product List | Glossary On
Versions: 1 2 3 4 5 6 7 8 9 10 11 12 13 14 15 16 17 18 19 20 21 22 23 24 25 26 27 28 29 30 31 32 33 34 35 36 37 38 39 40 41 42 43 44 45 46 47 48 49 50
000
ASUS43 KTOP 231508
RWRKS

WEATHER ROUNDUP FOR KANSAS
NATIONAL WEATHER SERVICE GOODLAND KS
900 AM CST TUE JAN 23 2018

NOTE:  "FAIR" INDICATES FEW OR NO CLOUDS BELOW 12,000 FEET WITH NO
SIGNIFICANT WEATHER AND/OR OBSTRUCTIONS TO VISIBILITY.

KSZ001>006-013>018-027>032-041>047-231600-
NORTHWEST KANSAS

CITY           SKY/WX    TMP DP  RH WIND       PRES   REMARKS
GOODLAND       CLEAR     18  12  77 W16       30.18R WCI   3
HAYS           SUNNY     23  16  74 NW9       30.20R
HILL CITY      SUNNY     24  16  71 W8        30.19R
RUSSELL        SUNNY     25  17  72 W13       30.18R WCI  14
$$

KSZ061>065-074>080-084>089-231600-
SOUTHWEST KANSAS

CITY           SKY/WX    TMP DP  RH WIND       PRES   REMARKS
DODGE CITY     SUNNY     29  14  53 NW15      30.21R WCI  18
ELKHART        SUNNY     27  12  53 W6        30.23R
GARDEN CITY    SUNNY     24  14  65 NW9       30.21R
GREAT BEND     SUNNY     25  17  72 NW12      30.21  WCI  14
LIBERAL        SUNNY     23  11  60 W9        30.24R
PRATT          SUNNY     25  15  65 NW13      30.21R WCI  14
$$

KSZ066>073-081>083-090>101-231600-
SOUTHEAST KANSAS

CITY           SKY/WX    TMP DP  RH WIND       PRES   REMARKS
COFFEYVILLE    SUNNY     29  23  78 NW13      30.20R WCI  19
HUTCHINSON     SUNNY     26  20  77 W13       30.20R WCI  15
MEDICINE LODGE   N/A     33  17  51 W7        30.23R
NEWTON         SUNNY     25  20  81 NW12      30.18R WCI  14
PARSONS        CLOUDY    28  23  81 NW9       30.20R
WICHITA INTL   MOSUNNY   28  21  75 W8        30.21R
WICHITA JABRA  SUNNY     27  21  78 NW9       30.19R
WICHITA MCCONL SUNNY     28  19  68 W9        30.20R
WINFIELD       SUNNY     26  22  84 W8        30.24R
$$

KSZ007>012-019>026-033>040-048>060-102>105-231600-
NORTHEAST KANSAS

CITY           SKY/WX    TMP DP  RH WIND       PRES   REMARKS
CONCORDIA      MOSUNNY   19  17  92 W3        30.16R
EMPORIA        CLOUDY    25  21  85 NW8       30.17R
LAWRENCE       CLOUDY    28  25  88 NW12      30.16R WCI  18
MANHATTAN      CLOUDY    26  21  81 VRB3      30.18R
MARYSVILLE     CLOUDY    25  21  86 NW10      30.16R WCI  15
OLATHE IND     CLOUDY    28  25  88 NW9       30.15R
OLATHE EXE     CLOUDY    27  24  89 N12       30.13R WCI  17
SALINA         SUNNY     27  20  75 W9        30.20R
TOPEKA BILLARD CLOUDY    26  22  84 W10       30.18R WCI  16
TOPEKA FORBES  CLOUDY    27  23  85 NW9       30.17R
$$




USA.gov is the U.S. government's official web portal to all federal, state and local government web resources and services.